Location: Newark
(34.0131°N, 4.3314°W)
Time: 18:14:04
(UTC+00:00)

Courier 1B - Pass Details

Date: 25 October 2019
Orbit: 963 x 1209 km, 28.3° (Epoch: 21 November)

Event Time Altitude Azimuth Distance (km) Brightness Sun altitude
Rises 18:59:37 0° 267° (W) 4,080 12.5 -18.8°
Reaches altitude 10° 19:02:30 10° 263° (W) 3,130 11.4 -19.4°
Maximum altitude 19:10:05 53° 189° (S) 1,444 8.4 -20.9°
Enters shadow 19:14:08 28° 126° (SE) 2,072 8.8 -21.8°
